+ View the NASA Portal
+ Center for Near-Earth Object Studies
JPL Small-Body Database Browser
Search:
[
help
]
118070 (5060 T-2)
Classification:
Main-belt Asteroid
SPK-ID:
2118070
[
Ephemeris
|
Orbit Diagram
|
Orbital Elements
|
Mission Design
|
Physical Parameters
|
Discovery Circumstances
|
Close-Approach Data
]
[ show orbit diagram ]
Orbital Elements at Epoch 2459200.5 (2020-Dec-17.0) TDB
Reference:
JPL 24
(heliocentric ecliptic J2000)
Element
Value
Uncertainty (1-sigma)
Units
e
.1350619468657606
6.1735e-08
a
2.328501454495034
9.2047e-09
au
q
2.014009514771179
1.4554e-07
au
i
5.570544709635768
5.4272e-06
deg
node
291.6039072516782
5.0443e-05
deg
peri
53.97955799232646
5.3167e-05
deg
M
120.3896367354083
1.565e-05
deg
t
p
2458766.489935784568
(2019-Oct-09.98993578)
5.5913e-05
TDB
period
1297.816218691205
3.55
7.6955e-06
2.107e-08
d
yr
n
.2773890438532548
1.6448e-09
deg/d
Q
2.642993394218888
1.0448e-08
au
Orbit Determination Parameters
# obs. used (total)
626
data-arc span
17287 days (47.33 yr)
first obs. used
1973-09-20
last obs. used
2021-01-18
planetary ephem.
DE431
SB-pert. ephem.
SB431-N16
condition code
0
norm. resid. RMS
.51887
source
ORB
producer
Otto Matic
solution date
2021-Feb-24 09:18:46
Additional Information
Earth MOID
= 1.01027 au
Jupiter MOID
= 2.74207 au
T_jup
= 3.554
[ show covariance matrix ]
[
Ephemeris
|
Orbit Diagram
|
Orbital Elements
|
Mission Design
|
Physical Parameters
|
Discovery Circumstances
|
Close-Approach Data
]
Physical Parameter Table
Parameter
Symbol
Value
Units
Sigma
Reference
Notes
absolute magnitude
H
16.1
n/a
MPO449689
118070 (5060 T-2)
Discovered 1973-Sep-25 by van Houten, C. J., van Houten-Groeneveld, I., Gehrels, T. at Palomar
Reference:
20051019/Numbers.arc
Last Updated:
2005-10-26
[ show close-approach data ]
Alternate Designations
5060 T-2
= 2002 YD24
[
Ephemeris
|
Orbit Diagram
|
Orbital Elements
|
Mission Design
|
Physical Parameters
|
Discovery Circumstances
|
Close-Approach Data
]
2021-Apr-10 20:15 UT
(server date/time)
Site Manager:
Ryan S. Park
Webmaster
:
Alan B. Chamberlin